RH
65 66 68 68 65 59 53 51 47 36 20 9 6 7 8 11 13 15 18 19 18 17 12 9 8 8 9 11 12 13 15 19 22 33 58 80 88 91 91 85 88 97
67 68 69 70 67 60 54 53 48 35 19 9 6 7 9 12 14 17 19 19 19 16 12 9 7 7 10 11 12 14 17 20 28 49 77 91 89 90 93 92 96 100
69 70 71 71 68 61 56 55 48 32 18 10 7 7 9 12 15 17 19 20 19 16 12 9 7 8 10 11 14 16 18 22 32 56 85 95 94 96 99 99 100 101
71 72 73 73 69 63 59 57 48 32 19 11 8 7 9 13 16 18 19 20 19 16 13 9 8 8 9 12 16 16 21 26 33 57 84 95 97 99 100 100 100 100
74 75 76 75 71 66 62 59 50 34 19 12 8 8 10 13 16 18 20 20 19 16 13 9 8 8 10 14 15 17 23 27 39 69 93 98 99 100 100 100 100 100
77 78 78 77 73 68 64 60 52 35 19 12 9 8 10 13 17 19 20 21 19 16 13 10 9 9 11 14 15 19 22 26 46 81 101 100 99 100 99 100 100 100
79 80 80 78 75 70 66 64 56 37 19 13 10 9 11 13 17 19 20 21 19 16 13 10 9 10 11 15 17 19 23 28 47 77 97 100 99 101 100 99 101 100
79 82 82 80 76 72 68 69 63 40 21 15 11 9 11 13 16 19 20 21 20 17 14 10 10 10 12 16 19 20 25 33 46 69 90 98 100 101 100 99 100 100
80 83 83 80 78 74 71 74 70 44 22 16 12 9 11 13 16 19 20 21 20 17 14 11 10 10 12 16 19 22 25 31 43 58 77 94 99 96 95 98 100 100
82 84 85 82 79 77 75 79 74 48 25 17 12 9 11 13 15 19 20 21 20 18 15 11 10 10 12 15 18 22 25 30 36 42 55 72 77 74 77 84 93 100
83 84 85 84 80 79 80 83 78 54 29 18 12 9 10 12 14 17 19 20 21 19 15 12 10 10 11 13 17 21 26 30 34 38 45 50 50 53 58 67 85 99
82 83 85 85 82 82 83 84 81 61 34 20 13 9 9 11 13 15 18 20 21 20 16 12 11 10 10 13 15 19 24 29 33 36 38 40 43 47 50 66 90 100
82 83 85 87 85 84 83 84 84 71 45 24 14 9 8 9 11 13 16 19 21 20 17 13 11 10 11 13 15 17 21 25 30 33 34 38 41 39 48 76 98 103
84 84 86 88 87 86 85 85 87 80 59 33 15 9 8 8 10 12 14 18 20 20 18 14 11 11 11 13 14 16 19 21 25 29 30 31 29 32 59 93 103 97
88 88 88 90 90 89 88 89 89 86 72 45 19 8 7 8 9 11 14 16 19 21 19 15 12 11 12 13 14 16 18 20 22 24 26 29 32 46 78 100 94 74
93 91 91 92 93 93 92 92 91 90 81 58 28 10 7 8 9 11 13 15 18 20 20 17 13 11 12 13 14 16 17 18 19 20 22 28 42 66 86 85 70 50
98 96 95 95 96 97 97 96 95 95 88 70 42 17 7 8 10 11 13 15 18 20 20 18 14 11 11 13 15 17 18 18 17 17 19 29 56 87 91 69 47 32
100 99 98 98 98 99 99 99 99 99 94 83 61 31 11 9 11 12 14 17 19 20 21 19 16 12 11 13 14 15 19 19 17 17 19 36 69 88 75 47 29 21
99 100 100 100 100 100 100 99 100 100 98 94 79 48 19 10 13 14 15 19 20 20 21 20 17 14 11 12 13 14 17 19 18 18 19 34 59 65 46 28 21 19
95 99 100 100 100 100 100 100 100 100 100 99 93 71 39 18 16 16 16 20 22 20 22 21 19 16 12 11 13 13 15 17 18 18 18 23 36 39 29 21 19 19
92 97 100 100 100 101 100 100 100 100 100 100 98 91 66 36 22 20 20 22 22 21 22 22 21 17 13 11 12 13 15 16 16 17 17 18 21 20 18 17 18 20
90 95 99 100 100 100 100 100 100 99 100 100 99 98 87 57 30 23 26 26 23 23 24 24 23 19 13 11 12 13 15 15 14 15 16 17 16 14 14 17 19 20
88 93 97 100 100 100 100 100 100 99 100 100 99 100 96 76 44 27 28 27 23 24 26 27 26 20 13 12 12 13 15 15 14 15 16 16 16 14 15 16 18 20
87 89 95 100 100 100 101 100 100 101 100 100 100 99 99 90 60 32 27 28 23 25 31 34 29 21 15 13 12 13 15 15 14 15 16 16 16 15 16 18 18 17
85 88 93 99 100 99 101 100 99 100 100 100 101 99 99 95 70 39 28 29 26 28 37 40 32 22 19 15 12 13 15 15 16 17 16 16 16 16 19 21 20 17
84 87 90 97 101 100 100 101 100 100 100 100 100 100 100 97 79 50 33 31 29 31 41 45 35 27 24 18 12 13 15 15 17 18 16 15 16 18 22 24 23 19
Wind_Speed
37 37 35 33 29 25 23 22 22 22 23 24 24 24 24 22 21 20 18 17 17 16 16 16 15 14 13 12 12 11 11 12 13 13 14 14 15 16 17 16 16 17
37 37 36 33 30 26 23 22 22 22 23 23 24 24 24 23 21 20 19 17 16 16 16 15 15 13 13 12 12 11 11 12 13 13 14 15 16 17 17 16 17 17
37 37 36 33 30 26 23 22 21 22 23 23 24 25 25 23 21 20 19 17 16 16 16 15 14 13 13 12 12 12 11 12 14 14 14 15 16 17 16 17 17 17
37 37 36 33 29 26 23 22 22 23 23 24 24 25 25 23 22 20 19 17 16 16 16 15 14 13 13 12 12 12 11 13 14 14 15 16 16 16 16 17 18 18
36 36 36 33 30 27 24 22 22 22 23 24 24 25 25 23 22 21 19 17 16 16 16 15 14 14 13 13 13 12 12 13 14 14 15 16 16 16 17 18 18 19
36 36 35 33 30 27 24 22 22 22 23 24 24 25 25 24 22 21 19 17 16 16 16 15 14 14 13 13 13 13 13 14 14 14 15 16 17 18 19 19 19 19
36 36 35 33 31 28 25 23 22 23 23 24 25 25 25 24 23 21 19 17 16 16 16 15 14 14 14 14 14 14 14 14 15 15 17 18 19 19 19 20 20 21
35 35 35 33 31 28 25 24 24 24 24 24 25 26 25 24 23 21 19 17 16 16 16 15 14 14 14 15 15 15 15 15 16 17 18 19 20 20 20 21 21 23
34 35 35 34 32 29 27 25 25 25 25 25 25 25 26 25 23 21 20 18 17 16 16 15 14 14 15 15 15 16 16 16 17 18 19 20 22 23 23 22 22 24
34 35 35 35 33 31 29 27 25 26 26 25 25 26 26 25 24 22 21 19 17 17 16 15 15 14 15 16 16 16 17 17 17 18 20 22 25 26 25 23 23 24
34 35 36 36 35 33 30 27 26 27 27 26 26 26 26 26 25 23 22 20 18 17 16 16 15 15 15 16 16 16 17 17 17 18 20 23 25 25 25 24 23 22
34 36 37 37 37 34 31 27 27 28 28 27 26 26 27 27 25 24 23 20 19 18 17 16 15 15 15 16 16 16 17 17 18 19 20 22 23 24 24 23 22 22
34 35 37 38 38 36 33 30 29 29 29 28 27 27 28 28 26 25 24 21 20 19 18 17 16 16 16 16 16 16 16 18 18 19 20 21 23 23 22 21 21 23
34 35 37 39 39 37 35 33 31 30 29 28 27 28 28 28 27 26 24 22 21 20 19 18 17 17 16 16 16 16 17 17 18 19 20 21 21 20 18 19 22 25
33 36 38 40 41 40 38 35 33 31 29 29 29 29 29 28 28 27 25 24 22 20 19 19 18 17 16 16 16 17 17 17 18 20 20 20 19 18 18 20 23 25
32 35 38 41 42 42 40 37 35 33 30 30 30 29 29 29 28 27 26 24 22 21 20 19 19 18 16 16 17 17 17 17 18 20 20 19 17 17 19 22 23 23
30 33 36 40 42 43 42 40 38 34 32 31 31 29 29 30 29 28 27 25 23 21 20 19 18 18 16 16 17 17 17 17 18 19 20 18 17 18 21 23 23 23
30 31 34 38 41 43 43 42 39 36 34 33 32 30 30 30 29 29 27 25 23 22 21 19 18 17 17 17 17 17 17 18 18 18 19 18 17 19 21 22 22 22
29 31 33 35 38 41 43 43 41 38 36 35 32 30 30 30 30 29 27 26 24 22 21 19 18 17 17 17 17 17 17 18 18 19 19 19 19 20 20 20 21 22
29 31 33 34 36 39 42 44 43 42 39 36 33 31 30 30 30 29 28 27 25 23 21 19 18 17 17 18 18 17 17 18 19 19 20 20 20 20 19 19 20 21
30 31 32 34 35 37 40 43 45 44 41 38 36 32 30 30 31 30 29 28 26 23 21 19 18 17 18 18 18 17 17 18 19 19 20 20 20 19 19 19 19 20
31 31 32 33 34 36 39 41 43 44 42 40 37 34 31 31 32 32 30 28 27 24 21 19 18 18 18 18 18 17 17 18 19 19 20 20 19 19 19 18 18 19
33 31 31 31 33 36 38 39 41 42 42 41 39 36 34 32 32 32 30 29 28 25 22 20 19 18 18 18 18 17 18 19 18 18 19 20 19 19 18 18 17 17
33 32 31 30 31 34 36 37 39 40 41 41 39 38 36 33 31 31 31 30 29 26 22 21 19 18 18 18 18 17 18 19 18 18 19 19 19 18 18 16 15 15
33 32 31 29 29 30 32 34 37 38 39 39 39 38 36 33 31 31 31 30 29 26 24 22 20 18 18 18 18 18 18 19 18 18 18 19 18 18 16 15 15 14
33 31 30 29 28 27 28 30 33 35 37 38 38 37 36 34 32 31 31 30 29 28 25 23 21 19 18 18 18 17 18 18 19 18 18 18 18 17 16 15 14 14
Wind_Direction
248 244 243 244 245 247 253 259 261 257 254 253 252 251 253 257 263 268 273 278 286 293 298 301 303 306 303 299 292 282 271 263 256 250 248 251 258 264 271 280 280 277
249 245 243 243 243 246 251 256 258 256 254 252 249 249 251 254 260 264 269 275 282 289 295 299 303 305 302 296 289 280 270 259 253 249 250 254 259 266 274 279 278 276
251 246 244 244 244 246 251 255 255 254 253 251 248 247 249 252 256 260 265 271 279 287 293 298 302 303 299 293 286 279 269 259 253 248 249 254 259 267 273 276 275 275
252 248 245 244 244 245 249 253 253 252 251 250 248 247 248 250 254 257 262 268 276 285 290 295 299 299 296 291 283 277 269 259 255 253 252 255 260 267 271 273 275 275
255 250 246 243 243 244 248 253 254 252 251 250 248 246 246 248 251 255 259 266 274 282 287 291 295 295 292 287 282 276 268 260 257 254 255 258 261 265 267 272 275 277
255 250 246 242 242 245 249 253 254 252 250 250 248 246 245 246 249 252 256 264 272 279 285 288 290 291 288 284 280 275 268 260 255 251 252 256 261 263 267 273 277 279
256 251 246 241 241 245 249 253 254 251 249 249 248 245 244 244 247 251 255 262 270 276 283 285 285 286 284 280 277 273 269 261 253 249 250 256 261 263 268 273 278 282
257 252 246 242 241 244 248 252 254 252 249 249 248 245 244 243 245 249 254 259 267 274 278 281 282 281 279 276 274 272 268 262 256 252 254 259 263 265 269 274 282 285
257 252 247 242 241 243 247 252 254 251 249 249 248 245 243 243 245 248 253 257 264 270 274 277 278 279 277 273 271 269 266 264 260 257 258 261 263 266 271 278 286 289
257 253 248 243 242 243 246 251 253 249 248 249 247 244 242 242 244 247 251 255 261 267 271 274 275 277 277 273 270 269 267 266 264 263 262 263 266 271 275 283 291 292
258 255 250 245 243 244 246 250 253 250 248 248 245 243 242 242 243 246 250 255 260 265 268 271 274 275 274 273 271 269 268 268 267 267 266 268 272 276 278 284 292 293
262 258 254 248 244 244 246 250 254 251 249 248 245 243 242 242 243 245 249 254 258 262 266 268 271 271 271 271 270 269 269 269 269 270 272 274 277 278 279 285 291 291
266 262 257 251 246 245 246 249 252 251 249 249 246 243 242 242 242 244 248 252 256 260 264 266 267 268 267 267 269 269 269 269 271 273 276 278 279 279 281 287 290 287
272 265 259 254 249 246 246 247 249 249 249 249 246 243 242 242 242 244 247 250 253 257 261 264 265 265 264 264 266 268 268 270 273 275 278 279 281 285 290 291 288 286
277 269 262 256 251 246 245 246 247 249 250 249 246 243 242 242 242 243 245 248 251 255 258 261 263 263 263 262 263 265 265 269 273 275 279 282 284 290 293 288 285 288
281 273 265 258 254 249 246 247 248 249 249 249 247 243 242 242 242 242 245 247 250 253 256 259 262 262 261 260 261 263 264 267 271 275 279 282 287 291 290 289 290 293
285 277 269 262 257 253 249 249 248 248 248 248 247 245 243 242 241 242 245 247 250 253 255 258 261 261 259 256 258 261 263 266 270 275 279 282 286 287 286 290 293 294
290 282 274 266 261 256 253 251 248 247 248 248 248 246 244 242 241 242 244 247 249 252 254 258 260 260 257 254 256 258 261 266 271 275 279 280 279 280 283 288 292 294
296 286 278 271 266 260 256 252 249 248 248 249 249 248 246 245 243 243 245 247 249 251 253 257 259 260 256 253 254 257 258 263 270 274 277 279 279 281 286 290 292 295
300 290 283 276 270 263 258 254 251 250 249 249 249 248 248 247 246 245 246 247 248 250 252 255 259 260 256 252 253 255 257 261 267 273 276 280 283 288 291 292 293 296
304 295 287 280 272 265 260 256 253 251 250 249 248 248 249 249 247 246 247 248 248 248 250 255 259 260 256 253 252 253 256 260 265 271 276 281 288 292 293 293 295 296
306 299 292 285 276 268 264 259 255 252 251 249 248 248 249 248 247 245 246 247 247 246 249 254 257 259 256 254 253 252 254 259 264 271 277 282 289 294 294 295 296 296
309 302 297 291 280 272 267 263 258 254 252 250 249 248 249 248 247 246 245 247 247 246 250 253 255 257 256 254 253 252 253 258 264 271 278 283 290 294 295 298 297 295
312 304 300 294 286 279 272 266 261 257 253 251 250 250 250 250 249 247 246 247 248 248 251 254 254 254 255 255 254 252 254 259 263 270 277 284 290 294 296 299 297 294
315 308 301 296 291 287 279 270 264 259 255 252 250 250 250 249 248 247 246 247 248 249 252 254 253 254 255 255 254 252 254 259 263 268 276 283 290 294 296 297 296 296
318 312 304 298 294 292 285 274 266 260 255 252 250 249 248 248 247 247 247 247 246 247 252 254 253 254 255 255 255 252 253 258 262 266 275 284 290 294 294 294 294 296